Flag for U.S.A. Weather past 2 weeks in Decatur, Illinois, U.S.A.

Now
68 °F

Sunny.


Feels Like: 68 °F
Forecast: 49 / 67 °F
Wind: 12 mph from Northwest

Location: Decatur Airport

Current Time: Oct 20, 2014 at 4:14:34 PM

Latest Report: Oct 20, 2014 at 3:54 PM


Visibility: 10 mi

Pressure: 29.90 "Hg

Humidity: 44%

Dew point: 45 °F

Location of DecaturLocation

Historic Weather in Decatur — Graph

°F

Decatur temperature yesterday

Maximum temperature yesterday: 60 °F (at 4:54 PM)
Minimum temperature yesterday: 38 °F (at 5:54 AM)
Average temperature yesterday: 50 °F

Past Weeks' High & Low Weather Summary

 TemperatureHumidityPressure
High72 °F (Oct 7, 4:54 PM)100% (Oct 13, 4:01 AM)30.26 "Hg (Oct 13, 4:01 AM)
Low36 °F (Oct 12, 1:54 AM)29% (Oct 7, 5:54 PM)29.45 "Hg (Oct 14, 9:54 AM)
Average55 °F77%29.90 "Hg
* Reported Oct 5 2:54 PM — Oct 20 2:54 PM, Decatur, Weather by CustomWeather, © 2014

Note: Actual official high and low records may vary slightly from our data, if they occured in-between our weather recording intervals... More about our weather records

Advertising

Decatur weather history for previous 24 hours

 ConditionsComfort  
Time TempWeatherWind HumidityBarometerVisibility
2:54 PM
Oct 20
69 °FSunny.20 mph44%29.89 "Hg10 mi
1:54 PM68 °FSunny.12 mph45%29.89 "Hg10 mi
12:54 PM67 °FSunny.12 mph49%29.90 "Hg10 mi
11:54 AM66 °FSunny.9 mph54%29.92 "Hg10 mi
10:54 AM63 °FSunny.9 mph63%29.92 "Hg10 mi
9:54 AM60 °FSunny.12 mph72%29.93 "Hg10 mi
8:54 AM56 °FSunny.13 mph81%29.92 "Hg10 mi
7:54 AM53 °FClear.13 mph83%29.92 "Hg10 mi
6:54 AM52 °FClear.13 mph86%29.91 "Hg10 mi
5:54 AM53 °FOvercast.10 mph80%29.91 "Hg10 mi
4:54 AM50 °FPassing clouds.10 mph86%29.92 "Hg10 mi
3:54 AM50 °FClear.10 mph86%29.93 "Hg10 mi
2:54 AM50 °FClear.10 mph86%29.95 "Hg10 mi
1:54 AM51 °FClear.9 mph80%29.97 "Hg10 mi
12:54 AM53 °FMostly cloudy.12 mph77%29.99 "Hg10 mi
11:54 PM
Oct 19
53 °FMostly cloudy.10 mph74%30.01 "Hg10 mi
9:54 PM53 °FClear.10 mph74%30.03 "Hg10 mi
8:54 PM52 °FClear.8 mph75%30.04 "Hg10 mi
7:54 PM51 °FClear.8 mph77%30.06 "Hg10 mi
6:54 PM53 °FSunny.9 mph72%30.06 "Hg10 mi
5:54 PM56 °FSunny.10 mph65%30.07 "Hg10 mi
4:54 PM60 °FSunny.9 mph56%30.08 "Hg10 mi
Weather by CustomWeather, © 2014

See weather overviewHow to use our weather pages